Rome, NY

9:14 PM EST on November 14, 2019 (GMT -0500)
Griffiss

Weather History for KRME - September, 2019

Change the Weather History Date:

Tuesday, September 10, 2019

  Actual Average Record
Temperature  
Mean Temperature 64 °F -  
Max Temperature 80 °F 75 °F 87 °F (1989)
Min Temperature 48 °F 54 °F 41 °F (2017)
Degree Days  
Heating Degree Days 2    
Growing Degree Days 14 (Base 50)    
Moisture  
Dew Point 59 °F    
Average Humidity 86    
Maximum Humidity 100    
Minimum Humidity 64    
Precipitation  
Precipitation 0.03 in - - ()
Sea Level Pressure  
Sea Level Pressure 30.25 in    
Wind  
Wind Speed 4 mph (ESE)    
Max Wind Speed 12 mph    
Max Gust Speed -    
Visibility 10 miles    
Events Rain    
Averages and records for this station are not official NWS values.
T = Trace of Precipitation, MM = Missing Value Source: NWS Daily Summary

Daily Weather History Graph

Daily Weather History Graph

Search for Another Location

Airport or City:

Astronomy

Sep. 10, 2019 Rise Set
Actual Time 6:35 AM EDT 7:21 PM EDT
Civil Twilight 6:06 AM EDT 7:49 PM EDT
Nautical Twilight 5:32 AM EDT 8:24 PM EDT
Astronomical Twilight 4:56 AM EDT 8:59 PM EDT
Moon 6:02 PM EDT (9/10) 2:51 AM EDT (9/10)
Length of Visible Light 13h 43m
Length of Day
12h 45m
Waxing Gibbous, 89% of the Moon is Illuminated
Sep 10
Waxing Gibbous
Sep 14
Full
Sep 21
Last Quarter
Sep 28
New
Oct 5
First Quarter

Hourly Weather History & Observations

Time (EDT) Temp. Dew Point Humidity Pressure Visibility Wind Dir Wind Speed Gust Speed Precip Events Conditions
12:53 AM 48.9 °F 48.9 °F 100% 30.32 in 10.0 mi Calm Calm - N/A   Clear
1:53 AM 48.9 °F 48.0 °F 97% 30.33 in 10.0 mi Calm Calm - N/A   Clear
2:53 AM 48.0 °F 48.0 °F 100% 30.33 in 10.0 mi ESE 3.5 mph - N/A   Clear
3:53 AM 48.9 °F 48.0 °F 97% 30.33 in 10.0 mi ESE 4.6 mph - N/A   Clear
4:53 AM 48.0 °F 46.9 °F 96% 30.34 in 10.0 mi Calm Calm - N/A   Clear
5:53 AM 48.0 °F 48.0 °F 100% 30.34 in 10.0 mi ESE 3.5 mph - N/A   Mostly Cloudy
6:53 AM 48.0 °F 48.0 °F 100% 30.32 in 10.0 mi ESE 5.8 mph - N/A   Clear
7:53 AM 52.0 °F 51.1 °F 97% 30.34 in 10.0 mi SE 3.5 mph - N/A   Partly Cloudy
8:20 AM 55.0 °F 53.1 °F 93% 30.33 in 10.0 mi SE 5.8 mph - N/A   Mostly Cloudy
8:48 AM 57.2 °F 53.6 °F 88% 30.33 in 10.0 mi ESE 8.1 mph - N/A   Overcast
8:53 AM 57.0 °F 54.0 °F 89% 30.33 in 10.0 mi ESE 6.9 mph - N/A   Overcast
9:53 AM 61.0 °F 55.9 °F 83% 30.33 in 10.0 mi ESE 6.9 mph - N/A   Overcast
10:34 AM 64.9 °F 59.0 °F 81% 30.32 in 10.0 mi ESE 9.2 mph - N/A   Overcast
10:53 AM 66.9 °F 59.0 °F 76% 30.31 in 10.0 mi East 11.5 mph - N/A   Partly Cloudy
11:53 AM 70.0 °F 62.1 °F 76% 30.27 in 10.0 mi SSE 8.1 mph - N/A   Clear
12:53 PM 75.0 °F 63.0 °F 66% 30.25 in 10.0 mi ESE 6.9 mph - N/A   Partly Cloudy
1:53 PM 75.9 °F 64.0 °F 67% 30.22 in 10.0 mi SSE 5.8 mph - N/A   Mostly Cloudy
2:53 PM 78.1 °F 64.9 °F 64% 30.20 in 10.0 mi ESE 8.1 mph - N/A   Scattered Clouds
3:53 PM 78.1 °F 66.0 °F 66% 30.19 in 10.0 mi SE 4.6 mph - N/A   Overcast
4:53 PM 79.0 °F 66.0 °F 64% 30.17 in 10.0 mi SSE 4.6 mph - N/A   Mostly Cloudy
5:53 PM 78.1 °F 68.0 °F 71% 30.16 in 10.0 mi SE 4.6 mph - N/A   Mostly Cloudy
6:53 PM 73.9 °F 69.1 °F 85% 30.16 in 10.0 mi East 4.6 mph - 0.00 in Rain Light Rain
7:53 PM 71.1 °F 69.1 °F 93% 30.14 in 10.0 mi East 9.2 mph - 0.03 in   Scattered Clouds
8:53 PM 70.0 °F 69.1 °F 97% 30.13 in 10.0 mi ESE 4.6 mph - N/A   Mostly Cloudy
9:53 PM 71.1 °F 66.9 °F 87% 30.12 in 10.0 mi East 8.1 mph - N/A   Scattered Clouds
10:53 PM 70.0 °F 66.9 °F 90% 30.12 in 10.0 mi East 5.8 mph - N/A   Clear
11:53 PM 70.0 °F 66.9 °F 90% 30.11 in 10.0 mi ENE 5.8 mph - N/A   Clear